{"data":{"norad_id":57238,"intl_designator":"2023-094W","name":"STARLINK-6334","alt_names":[],"object_type":"PAYLOAD","status":"ACTIVE","operator":null,"country":"US","launch_date":"2023-07-07","launch_site_code":"AFWTR","launch_vehicle":null,"mission":null,"orbit_class":"UNKNOWN","rcs_meters":null,"size_class":null,"mass_kg":null,"dimensions":null,"purposes":["comms"],"wikipedia_slug":null,"has_3d_model":false,"image_url":null,"decayed_at":null,"tle_current":{"epoch":"2026-09-20T07:44:56.374080Z","epoch_age_seconds":139633,"freshness":"FRESH","line1":"1 57238U 23094W   26263.32287470  .00000644  00000+0  32933-4 0  9992","line2":"2 57238  43.0054   0.9563 0001691 268.1367  91.9291 15.27566278177001","mean_motion":15.27566278,"eccentricity":0.0001691,"inclination_deg":43.0054,"raan_deg":0.9563,"arg_perigee_deg":268.1367,"mean_anomaly_deg":91.9291,"bstar":3.2933e-5,"rev_number":17700,"period_min":94.267595503964,"perigee_km":481.92995143472,"apogee_km":484.25041846867,"semimajor_km":6861.2271849517,"source":"CELESTRAK","updated_at":"2026-09-21T09:00:33.588415Z"}}}